Simultaneous Nadir Overpasses (SNOs) Predictions

Prediction of SNOs between GOES-16 and NOAA-19 Satellite Orbit:

Table of predicted SNOs for the next 14.0 days since TLE Epoch: 5/9/2020
Index Date Time (GOES-16) GOES-16 Lat,Lon NOAA-19 Lat,Lon Distance(km) Time Diff (sec)
1 05/09/2020 10:53:17 0.03, -75.20 0.21, -75.89 78.48 80
2 05/10/2020 10:38:56 0.02, -75.21 -0.46, -73.04 247.47 80
3 05/12/2020 23:00:02 -0.02, -75.20 -0.68, -78.03 322.76 80
4 05/13/2020 22:51:02 -0.01, -75.21 -0.03, -75.17 4.61 80
5 05/14/2020 22:39:22 -0.01, -75.22 0.68, -72.33 330.58 80
6 05/17/2020 11:00:18 0.01, -75.28 0.45, -77.28 227.35 80
7 05/18/2020 10:45:57 0.01, -75.30 -0.22, -74.43 100.21 80
8 05/19/2020 10:34:16 0.01, -75.32 -0.83, -71.57 427.79 80
9 05/20/2020 23:07:04 -0.01, -75.32 -0.97, -79.42 467.67 80
10 05/21/2020 22:55:24 -0.01, -75.34 -0.31, -76.56 139.95 80
11 05/22/2020 22:46:24 -0.00, -75.37 0.40, -73.73 187.91 80




NCC Satellite Simultaneous Nadir Overpasses (SNOs) Prediction Service
